TimeCDT,TemperatureF,Dew PointF,Humidity,Sea Level PressureIn,VisibilityMPH,Wind Direction,Wind SpeedMPH,Gust SpeedMPH,PrecipitationIn,Events,Conditions,WindDirDegrees,DateUTC
12:58 AM,76.1,73.6,92,30.10,10.0,ENE,5.8,-,N/A,,Clear,60,2013-08-22 05:58:00
1:58 AM,75.9,73.8,93,30.08,10.0,Calm,Calm,-,N/A,,Clear,0,2013-08-22 06:58:00
2:58 AM,75.0,73.2,94,30.08,10.0,NE,5.8,-,N/A,,Clear,40,2013-08-22 07:58:00
3:58 AM,74.5,72.7,94,30.06,10.0,NE,5.8,-,N/A,,Mostly Cloudy,50,2013-08-22 08:58:00
4:58 AM,73.6,71.8,94,30.07,10.0,NE,5.8,-,N/A,,Clear,40,2013-08-22 09:58:00
5:58 AM,73.6,71.8,94,30.08,10.0,ENE,4.6,-,N/A,,Clear,70,2013-08-22 10:58:00
6:58 AM,73.8,71.6,93,30.08,10.0,NE,6.9,-,N/A,,Clear,50,2013-08-22 11:58:00
7:58 AM,76.5,72.7,88,30.09,10.0,NE,5.8,-,N/A,,Clear,50,2013-08-22 12:58:00
8:58 AM,80.4,74.1,81,30.10,10.0,NE,5.8,-,N/A,,Clear,50,2013-08-22 13:58:00
9:58 AM,84.6,74.5,72,30.11,10.0,East,8.1,-,N/A,,Clear,90,2013-08-22 14:58:00
10:53 AM,86.0,73.4,66,30.10,10.0,ENE,8.1,-,N/A,,Mostly Cloudy,60,2013-08-22 15:53:00
10:58 AM,86.4,73.6,66,30.11,10.0,ENE,10.4,-,N/A,,Mostly Cloudy,60,2013-08-22 15:58:00
11:18 AM,87.8,73.4,62,30.09,10.0,NE,9.2,-,N/A,,Mostly Cloudy,50,2013-08-22 16:18:00
11:23 AM,87.8,73.4,62,30.09,10.0,NE,6.9,-,N/A,,Mostly Cloudy,40,2013-08-22 16:23:00
11:58 AM,87.4,73.4,63,30.09,10.0,NE,8.1,-,N/A,,Mostly Cloudy,40,2013-08-22 16:58:00
12:58 PM,89.2,72.1,57,30.06,10.0,Variable,5.8,-,N/A,,Scattered Clouds,0,2013-08-22 17:58:00
1:58 PM,88.7,76.1,66,30.04,10.0,SSE,10.4,-,N/A,,Scattered Clouds,160,2013-08-22 18:58:00
2:58 PM,88.2,75.2,65,30.02,10.0,SSE,12.7,-,N/A,,Clear,160,2013-08-22 19:58:00
3:35 PM,86.0,75.2,70,30.01,10.0,SSE,13.8,-,N/A,Rain,Light Rain,160,2013-08-22 20:35:00
3:44 PM,86.0,75.2,70,30.00,10.0,SSE,12.7,-,N/A,,Mostly Cloudy,150,2013-08-22 20:44:00
3:58 PM,86.7,75.2,68,30.00,10.0,SSE,13.8,-,0.00,,Partly Cloudy,160,2013-08-22 20:58:00
4:58 PM,86.0,74.8,69,30.00,10.0,SSE,12.7,-,N/A,Thunderstorm,Partly Cloudy,150,2013-08-22 21:58:00
5:58 PM,84.7,74.1,70,29.99,10.0,SE,8.1,-,N/A,Thunderstorm,Scattered Clouds,130,2013-08-22 22:58:00
6:58 PM,83.7,72.9,70,29.99,10.0,SE,5.8,-,N/A,,Scattered Clouds,140,2013-08-22 23:58:00
7:58 PM,82.8,73.9,75,30.01,10.0,East,9.2,-,N/A,Thunderstorm,Mostly Cloudy,100,2013-08-23 00:58:00
8:08 PM,82.4,73.4,74,30.01,10.0,East,10.4,23.0,N/A,Thunderstorm,Mostly Cloudy,80,2013-08-23 01:08:00
8:13 PM,80.6,73.4,79,30.02,10.0,East,11.5,23.0,N/A,Thunderstorm,Mostly Cloudy,80,2013-08-23 01:13:00
8:58 PM,77.5,73.2,86,30.02,10.0,ENE,4.6,-,N/A,,Scattered Clouds,60,2013-08-23 01:58:00
9:58 PM,76.5,71.8,85,30.03,10.0,ENE,5.8,-,N/A,,Clear,60,2013-08-23 02:58:00
10:58 PM,76.6,71.2,83,30.03,10.0,ENE,4.6,-,N/A,,Clear,70,2013-08-23 03:58:00
11:58 PM,75.4,71.8,89,30.02,10.0,NE,5.8,-,N/A,,Clear,40,2013-08-23 04:58:00